Location: Black Swamp Observatory
(41.3920°N, 84.1250°W)
Time: 22:32:02
(UTC-04:00)

Amateur Radio Satellites - All Passes

Search period start: 24 September 2017 22:02
Search period end: 25 September 2017 22:02
Location: Black Swamp Observatory, 41.3920°N, 84.1250°W

Satellite Date Start Highest point End Downlink Frequencies (MHz)
Time Altitude Azimuth
FO-29 24 Sep 22:07:02 22:12:07 35° 98° (E) 22:17:43 435.910
DELFI C3 24 Sep 22:11:39 22:15:32 59° 75° (ENE) 22:19:25 145.870
ISS 24 Sep 22:20:36 22:23:41 36° 333° (NNW) 22:26:46 437.550
EO-88 24 Sep 22:24:04 22:27:33 43° 73° (ENE) 22:31:05 145.990 - 145.960
STRAND 1 24 Sep 22:30:20 22:34:01 20° 297° (WNW) 22:37:42 437.568
Oscar 11 24 Sep 22:31:21 22:34:30 19° 267° (W) 22:37:41 .
AO-73 24 Sep 22:34:57 22:37:04 13° 271° (W) 22:39:12 145.935
UNISAT 6 24 Sep 22:35:53 22:39:25 21° 93° (E) 22:42:56 437.425
YUBILEINY 24 Sep 22:37:50 22:43:38 19° 62° (ENE) 22:49:26 435.215
ZACube-1 24 Sep 22:39:52 22:40:48 11° 272° (W) 22:41:46 437.345
PCSat 24 Sep 22:41:00 22:43:31 13° 38° (NE) 22:46:02 145.827
BEESAT 2 24 Sep 22:41:37 22:44:11 16° 318° (NW) 22:46:47 435.950
nSIGHT-1 24 Sep 22:58:24 23:00:58 21° 341° (NNW) 23:03:32 .
TIGRISAT 24 Sep 22:58:41 23:02:55 32° 96° (E) 23:07:07 435.000
Max Valier Satellite 24 Sep 22:59:47 23:03:20 44° 261° (W) 23:06:56 145.860
PRISM 24 Sep 23:10:41 23:13:49 21° 95° (E) 23:16:56 437.425
ESTCUBE 1 24 Sep 23:14:29 23:17:45 20° 65° (ENE) 23:21:02 437.505/2401.250
LO-87 24 Sep 23:16:55 23:19:45 23° 70° (ENE) 23:22:37 145.935 - 145.965
SO-50 24 Sep 23:24:26 23:29:01 70° 56° (NE) 23:33:39 436.795
FO-29 24 Sep 23:52:18 23:57:10 33° 292° (WNW) 00:02:29 435.910
ISS 24 Sep 23:58:52 00:00:52 15° 352° (N) 00:02:51 437.550
EO-88 25 Sep 00:00:05 00:01:26 12° 269° (W) 00:02:47 145.990 - 145.960
UNISAT 6 25 Sep 00:11:51 00:16:14 40° 289° (WNW) 00:20:37 437.425
PCSat 25 Sep 00:22:34 00:27:59 67° 58° (ENE) 00:33:22 145.827
AIST 2D 25 Sep 00:29:35 00:32:52 36° 98° (E) 00:36:06 435.315
DUCHIFAT 1 25 Sep 00:30:40 00:32:00 11° 90° (E) 00:33:19 145.980
YUBILEINY 25 Sep 00:32:57 00:41:44 89° 86° (E) 00:50:31 435.215
Tancredo 1 25 Sep 00:35:14 00:36:59 15° 18° (NNE) 00:38:43 437.200
TIGRISAT 25 Sep 00:35:33 00:39:26 26° 292° (WNW) 00:43:20 435.000
nSIGHT-1 25 Sep 00:36:27 00:38:12 14° 1° (N) 00:39:56 .
POLYITAN 1 25 Sep 00:44:47 00:48:07 22° 94° (E) 00:51:25 437.675
PRISM 25 Sep 00:45:33 00:49:06 29° 291° (WNW) 00:52:38 437.425
EO-79 25 Sep 00:48:33 00:52:02 24° 95° (E) 00:55:29 145.935-145.965
ESTCUBE 1 25 Sep 00:49:58 00:54:15 41° 262° (W) 00:58:34 437.505/2401.250
LO-87 25 Sep 00:50:28 00:53:07 20° 266° (W) 00:55:47 145.935 - 145.965
SPROUT 25 Sep 01:01:28 01:05:39 65° 75° (ENE) 01:09:52 437.525
QB50P2 25 Sep 01:02:17 01:06:17 37° 98° (E) 01:10:15 145.880/145.840
SO-50 25 Sep 01:06:43 01:08:55 13° 252° (WSW) 01:11:07 436.795
VELOX 1 25 Sep 01:12:38 01:16:58 64° 74° (ENE) 01:21:20 145.980
ISS 25 Sep 01:36:06 01:38:19 17° 13° (NNE) 01:40:33 437.550
NANOSAT C BR1 25 Sep 01:36:06 01:40:22 73° 101° (E) 01:44:37 145.865
50 SAT 25 Sep 01:56:48 02:00:04 64° 75° (ENE) 02:03:21 437.505
DUCHIFAT 1 25 Sep 02:03:49 02:08:01 62° 286° (WNW) 02:12:13 145.980
AIST 2D 25 Sep 02:03:56 02:05:42 13° 294° (WNW) 02:07:29 435.315
UKube-1 25 Sep 02:07:17 02:11:20 42° 71° (ENE) 02:15:24 .
PCSat 25 Sep 02:07:24 02:10:47 17° 256° (WSW) 02:14:10 145.827
Tancredo 1 25 Sep 02:09:04 02:11:46 89° 112° (ESE) 02:14:26 437.200
nSIGHT-1 25 Sep 02:12:42 02:15:24 23° 21° (NNE) 02:18:05 .
M-CUBED/EXP-1 PRIME 25 Sep 02:14:07 02:17:12 36° 104° (ESE) 02:20:14 437.505
DX 1 25 Sep 02:16:54 02:21:14 86° 78° (ENE) 02:25:36 434.975-435.025
POLYITAN 1 25 Sep 02:20:04 02:23:55 33° 290° (WNW) 02:27:46 437.675
EO-79 25 Sep 02:24:02 02:27:46 30° 291° (WNW) 02:31:29 145.935-145.965
YUBILEINY 25 Sep 02:31:55 02:37:16 18° 283° (WNW) 02:42:39 435.215
BUGSAT 1 25 Sep 02:33:19 02:37:33 74° 102° (ESE) 02:41:47 437.445
QB50P2 25 Sep 02:38:41 02:41:48 20° 294° (WNW) 02:44:53 145.880/145.840
SPROUT 25 Sep 02:41:05 02:41:58 11° 271° (W) 02:42:50 437.525
VELOX 1 25 Sep 02:52:22 02:53:50 11° 270° (W) 02:55:17 145.980
ITUPSAT 1 25 Sep 02:56:47 03:00:09 19° 64° (ENE) 03:03:32 437.325
O/OREOS (USA 219) 25 Sep 03:07:14 03:11:44 79° 110° (ESE) 03:16:17 437.305
ISS 25 Sep 03:12:07 03:15:21 54° 32° (NNE) 03:18:35 437.550
Gurwin Techsat 1B 25 Sep 03:14:01 03:19:14 54° 100° (E) 03:24:25 435.225
NANOSAT C BR1 25 Sep 03:14:20 03:15:28 11° 298° (WNW) 03:16:36 145.865
Oscar 19 25 Sep 03:17:25 03:22:36 86° 99° (E) 03:27:45 437.125/150
BEESAT 25 Sep 03:31:07 03:35:34 41° 70° (ENE) 03:40:04 436.000
BEESAT 3 25 Sep 03:32:57 03:34:27 12° 39° (NE) 03:35:56 437.485
UKube-1 25 Sep 03:44:44 03:47:32 17° 267° (W) 03:50:20 .
AO-7 25 Sep 03:45:54 03:51:28 19° 91° (E) 03:57:00 .
nSIGHT-1 25 Sep 03:48:43 03:51:57 61° 219° (SW) 03:55:10 .
MOZHAYETS 4 25 Sep 03:49:14 03:53:47 60° 74° (ENE) 03:58:23
M-CUBED/EXP-1 PRIME 25 Sep 03:50:00 03:51:19 12° 301° (WNW) 03:52:37 437.505
BUGSAT 1 25 Sep 04:11:16 04:12:17 11° 298° (WNW) 04:13:18 437.445
CUBESAT XI-V 25 Sep 04:20:16 04:24:15 28° 68° (ENE) 04:28:13 437.345
ITAMSAT 1 25 Sep 04:26:05 04:30:20 25° 95° (E) 04:34:34 435.822/435.867
ITUPSAT 1 25 Sep 04:33:00 04:37:36 48° 260° (W) 04:42:15 437.325
ISS 25 Sep 04:49:15 04:51:33 18° 228° (SW) 04:53:51 437.550
O/OREOS (USA 219) 25 Sep 04:49:48 04:51:45 12° 309° (NW) 04:53:42 437.305
AO-85 25 Sep 04:50:01 04:53:39 24° 47° (NE) 04:57:29 145.980
Gurwin Techsat 1B 25 Sep 04:54:55 04:58:46 21° 297° (WNW) 05:02:35 435.225
Oscar 19 25 Sep 04:58:57 05:01:10 13° 301° (WNW) 05:03:23 437.125/150
BEESAT 3 25 Sep 05:08:38 05:12:38 88° 53° (NE) 05:16:32 437.485
BEESAT 25 Sep 05:09:56 05:13:29 21° 266° (W) 05:17:04 436.000
BEESAT 2 25 Sep 05:19:41 05:23:28 36° 51° (NE) 05:27:12 435.950
MOZHAYETS 4 25 Sep 05:29:03 05:31:19 13° 270° (W) 05:33:37
RS-15 25 Sep 05:30:56 05:42:35 53° 111° (ESE) 05:54:18 29.354- 29.394
KKS-1 25 Sep 05:34:51 05:39:10 58° 73° (ENE) 05:43:32 437.445
AO-7 25 Sep 05:36:49 05:45:09 86° 289° (WNW) 05:53:27 .
DOVE 4 25 Sep 05:39:19 05:40:27 11° 90° (E) 05:41:36 437.250
STARS 25 Sep 05:54:57 05:58:58 38° 70° (ENE) 06:03:02 437.465
CUBESAT XI-V 25 Sep 05:57:22 06:01:30 30° 264° (W) 06:05:40 437.345
ITAMSAT 1 25 Sep 06:05:02 06:09:54 41° 291° (WNW) 06:14:45 435.822/435.867
AO-85 25 Sep 06:29:54 06:34:11 43° 243° (WSW) 06:38:46 145.980
BEESAT 2 25 Sep 06:57:57 07:00:58 20° 248° (WSW) 07:03:57 435.950
XW-2D 25 Sep 07:04:59 07:08:11 25° 95° (E) 07:11:20 145.860 - 145.880
HO-68 25 Sep 07:12:05 07:14:43 12° 87° (E) 07:17:20 435.675
KKS-1 25 Sep 07:14:07 07:16:05 13° 269° (W) 07:18:04 437.445
DOVE 4 25 Sep 07:14:16 07:18:30 65° 285° (WNW) 07:22:55 437.250
XW-2F 25 Sep 07:15:52 07:19:15 31° 96° (E) 07:22:36 145.980 - 146.000
XW-2B 25 Sep 07:17:10 07:20:39 33° 97° (E) 07:24:06 145.730 - 145.750
AO-7 25 Sep 07:31:07 07:36:47 21° 309° (NW) 07:42:28 .
STARS 25 Sep 07:32:22 07:35:27 19° 266° (W) 07:38:32 437.465
NUDT-PHONESAT 25 Sep 07:33:29 07:36:58 38° 98° (E) 07:40:26 437.300
XW-2C 25 Sep 07:38:24 07:42:12 65° 100° (E) 07:45:57 145.795 - 145.815
RS-15 25 Sep 07:43:14 07:55:12 53° 314° (NW) 08:07:10 29.354- 29.394
LilacSat-2 25 Sep 07:52:44 07:56:35 76° 284° (WNW) 08:00:22 437.200
CUBEBUG 2 25 Sep 08:02:03 08:04:46 15° 90° (E) 08:07:29 437.445
KAITUO 1B 25 Sep 08:04:33 08:08:18 79° 284° (WNW) 08:12:00 145.475/437.950
CUTE-I 25 Sep 08:04:35 08:09:57 84° 104° (ESE) 08:15:18 437.470
STRAND 1 25 Sep 08:06:02 08:11:06 75° 73° (ENE) 08:16:13 437.568
SEEDS 25 Sep 08:19:13 08:22:28 22° 94° (E) 08:25:42 437.485
FO-29 25 Sep 08:22:46 08:25:28 14° 60° (ENE) 08:28:07 435.910
AAUSAT CUBESAT 2 25 Sep 08:37:20 08:39:44 15° 92° (E) 08:42:06 437.432
XW-2D 25 Sep 08:39:16 08:42:13 22° 291° (WNW) 08:45:09 145.860 - 145.880
AO-73 25 Sep 08:46:14 08:47:45 11° 89° (E) 08:49:14 145.935
ZACube-1 25 Sep 08:49:17 08:51:48 14° 90° (E) 08:54:17 437.345
CUTE 1.7 + AOD 2 25 Sep 08:49:54 08:54:09 82° 102° (ESE) 08:58:22 437.475
XW-2F 25 Sep 08:50:32 08:53:08 18° 293° (WNW) 08:55:43 145.980 - 146.000
XW-2B 25 Sep 08:52:05 08:54:34 17° 293° (WNW) 08:57:01 145.730 - 145.750
XW-2A 25 Sep 08:54:19 08:57:30 34° 98° (E) 09:00:37 145.665 - 145.685
HO-68 25 Sep 08:56:17 09:03:31 76° 104° (ESE) 09:10:43 435.675
NUDT-PHONESAT 25 Sep 09:08:25 09:10:30 15° 294° (WNW) 09:12:35 437.300
UNISAT 6 25 Sep 09:35:18 09:38:14 18° 64° (ENE) 09:41:13 437.425
CUBEBUG 2 25 Sep 09:37:03 09:41:42 57° 286° (WNW) 09:46:21 437.445
UWE-3 25 Sep 09:40:10 09:44:52 89° 283° (WNW) 09:49:33 435.000/436.395/437.385
CUTE-I 25 Sep 09:46:39 09:49:15 14° 301° (WNW) 09:51:51 437.470
STRAND 1 25 Sep 09:48:41 09:50:49 13° 271° (W) 09:52:58 437.568
SEEDS 25 Sep 09:54:30 09:58:10 30° 290° (WNW) 10:01:48 437.485
TIGRISAT 25 Sep 09:57:35 10:01:15 27° 68° (ENE) 10:05:00 435.000
PRISM 25 Sep 10:00:30 10:03:04 16° 65° (ENE) 10:05:39 437.425
RS-15 25 Sep 10:01:53 10:11:29 25° 345° (NNW) 10:20:55 29.354- 29.394
FO-29 25 Sep 10:04:21 10:10:02 77° 257° (WSW) 10:15:19 435.910
AAUSAT CUBESAT 2 25 Sep 10:11:30 10:15:23 42° 288° (WNW) 10:19:14 437.432
Oscar 11 25 Sep 10:16:51 10:21:13 77° 101° (ESE) 10:25:32 .
AO-73 25 Sep 10:19:52 10:24:26 69° 285° (WNW) 10:28:56 145.935
ZACube-1 25 Sep 10:23:53 10:28:24 56° 286° (WNW) 10:32:51 437.345
XW-2A 25 Sep 10:28:10 10:29:53 13° 294° (WNW) 10:31:36 145.665 - 145.685
Max Valier Satellite 25 Sep 10:30:23 10:32:43 16° 93° (E) 10:35:02 145.860
HO-68 25 Sep 10:45:14 10:50:30 23° 303° (WNW) 10:55:47 435.675
AIST 2D 25 Sep 11:04:52 11:06:51 14° 67° (ENE) 11:08:50 435.315
UNISAT 6 25 Sep 11:10:25 11:14:34 44° 262° (W) 11:18:51 437.425
UWE-3 25 Sep 11:19:49 11:20:33 10° 300° (WNW) 11:21:16 435.000/436.395/437.385
DELFI C3 25 Sep 11:22:49 11:26:45 82° 283° (WNW) 11:30:39 145.870
EO-88 25 Sep 11:25:51 11:29:28 57° 100° (E) 11:33:03 145.990 - 145.960
PRISM 25 Sep 11:34:08 11:38:01 41° 261° (W) 11:41:54 437.425
TIGRISAT 25 Sep 11:34:09 11:37:52 27° 265° (W) 11:41:40 435.000
POLYITAN 1 25 Sep 11:37:53 11:40:37 17° 65° (ENE) 11:43:22 437.675
O/OREOS (USA 219) 25 Sep 11:38:53 11:41:59 17° 54° (NE) 11:45:05 437.305
YUBILEINY 25 Sep 11:40:33 11:46:27 21° 79° (ENE) 11:52:19 435.215
EO-79 25 Sep 11:41:25 11:44:19 18° 66° (ENE) 11:47:15 145.935-145.965
QB50P2 25 Sep 11:54:55 11:58:30 28° 69° (ENE) 12:02:08 145.880/145.840
Oscar 11 25 Sep 11:55:45 11:56:42 11° 299° (WNW) 11:57:38 .
Max Valier Satellite 25 Sep 12:03:15 12:06:39 33° 288° (WNW) 12:10:01 145.860
LO-87 25 Sep 12:16:16 12:19:25 28° 96° (E) 12:22:34 145.935 - 145.965
RS-15 25 Sep 12:19:39 12:29:37 28° 21° (NNE) 12:39:11 29.354- 29.394
NANOSAT C BR1 25 Sep 12:27:48 12:31:52 52° 73° (ENE) 12:35:58 145.865
AIST 2D 25 Sep 12:36:28 12:39:43 34° 263° (W) 12:43:01 435.315
ESTCUBE 1 25 Sep 12:42:05 12:46:18 39° 98° (E) 12:50:29 437.505/2401.250
SPROUT 25 Sep 12:49:23 12:50:29 11° 90° (E) 12:51:36 437.525
DUCHIFAT 1 25 Sep 12:55:01 12:59:12 87° 260° (W) 13:03:26 145.980
Oscar 19 25 Sep 12:57:23 13:00:37 17° 61° (ENE) 13:03:51 437.125/150
M-CUBED/EXP-1 PRIME 25 Sep 12:58:57 13:03:07 56° 69° (ENE) 13:06:58 437.505
Gurwin Techsat 1B 25 Sep 12:59:19 13:01:17 12° 58° (ENE) 13:03:16 435.225
VELOX 1 25 Sep 13:04:34 13:06:08 12° 90° (E) 13:07:43 145.980
NO-84 25 Sep 13:06:54 13:10:46 51° 135° (SE) 13:14:21 435.350 FM
POLYITAN 1 25 Sep 13:12:02 13:16:02 43° 261° (W) 13:20:05 437.675
EO-79 25 Sep 13:15:51 13:19:47 38° 262° (W) 13:23:45 145.935-145.965
O/OREOS (USA 219) 25 Sep 13:17:15 13:21:44 53° 252° (WSW) 13:26:12 437.305
BUGSAT 1 25 Sep 13:22:48 13:26:40 48° 73° (ENE) 13:30:36 437.445
QB50P2 25 Sep 13:30:48 13:34:15 24° 265° (W) 13:37:44 145.880/145.840
YUBILEINY 25 Sep 13:33:25 13:42:08 81° 278° (W) 13:50:53 435.215
SO-50 25 Sep 13:39:45 13:43:06 21° 111° (ESE) 13:46:27 436.795
LO-87 25 Sep 13:50:09 13:52:37 18° 292° (WNW) 13:55:07 145.935 - 145.965
NANOSAT C BR1 25 Sep 14:05:54 14:07:52 13° 269° (W) 14:09:51 145.865
DX 1 25 Sep 14:06:21 14:08:43 14° 92° (E) 14:11:04 434.975-435.025
ESTCUBE 1 25 Sep 14:19:31 14:22:49 20° 294° (WNW) 14:26:06 437.505/2401.250
SPROUT 25 Sep 14:22:32 14:26:47 65° 285° (WNW) 14:31:02 437.525
RS-15 25 Sep 14:33:02 14:45:02 66° 51° (NE) 14:56:21 29.354- 29.394
Oscar 19 25 Sep 14:34:13 14:39:22 66° 258° (WSW) 14:44:34 437.125/150
Gurwin Techsat 1B 25 Sep 14:35:05 14:40:24 86° 75° (ENE) 14:45:44 435.225
M-CUBED/EXP-1 PRIME 25 Sep 14:35:56 14:37:42 12° 262° (W) 14:39:26 437.505
VELOX 1 25 Sep 14:38:38 14:42:59 63° 287° (WNW) 14:47:18 145.980
AO-7 25 Sep 14:44:49 14:51:44 31° 56° (ENE) 14:58:39 .
NO-84 25 Sep 14:45:11 14:48:20 24° 330° (NNW) 14:51:17 435.350 FM
50 SAT 25 Sep 14:49:01 14:52:18 58° 101° (E) 14:55:34 437.505
BUGSAT 1 25 Sep 15:00:26 15:02:18 13° 269° (W) 15:04:12 437.445
PCSat 25 Sep 15:03:59 15:09:18 61° 115° (ESE) 15:14:40 145.827
SO-50 25 Sep 15:18:58 15:23:14 43° 308° (NW) 15:27:34 436.795
UKube-1 25 Sep 15:29:35 15:33:55 77° 104° (ESE) 15:38:12 .
YUBILEINY 25 Sep 15:35:18 15:40:27 17° 300° (WNW) 15:45:37 435.215
DX 1 25 Sep 15:40:58 15:45:11 50° 288° (WNW) 15:49:21 434.975-435.025
ITAMSAT 1 25 Sep 15:43:56 15:48:41 39° 68° (ENE) 15:53:28 435.822/435.867
MOZHAYETS 4 25 Sep 15:45:41 15:48:08 14° 90° (E) 15:50:33
Gurwin Techsat 1B 25 Sep 16:19:22 16:20:59 11° 272° (W) 16:22:37 435.225
ITUPSAT 1 25 Sep 16:33:10 16:37:45 42° 99° (E) 16:42:17 437.325
AO-7 25 Sep 16:35:40 16:43:55 65° 255° (WSW) 16:52:12 .
DOVE 4 25 Sep 16:45:18 16:46:53 12° 63° (ENE) 16:48:24 437.250
RS-15 25 Sep 16:46:22 16:56:43 38° 254° (WSW) 17:06:38 29.354- 29.394
PCSat 25 Sep 16:48:52 16:53:07 23° 314° (NW) 16:57:23 145.827
BEESAT 25 Sep 17:08:14 17:13:04 84° 283° (WNW) 17:17:51 436.000
UKube-1 25 Sep 17:08:21 17:09:17 11° 299° (WNW) 17:10:13 .
MOZHAYETS 4 25 Sep 17:21:04 17:25:38 58° 287° (WNW) 17:30:10
ITAMSAT 1 25 Sep 17:23:59 17:28:14 26° 265° (W) 17:32:30 435.822/435.867
KKS-1 25 Sep 17:28:09 17:29:15 11° 90° (E) 17:30:21 437.445
HO-68 25 Sep 17:43:29 17:45:19 11° 48° (NE) 17:47:09 435.675
XW-2D 25 Sep 17:47:16 17:49:15 14° 65° (ENE) 17:51:15 145.860 - 145.880
CUTE-I 25 Sep 17:48:43 17:52:19 19° 62° (ENE) 17:55:54 437.470
CUBESAT XI-V 25 Sep 17:53:00 17:57:37 65° 101° (E) 18:02:11 437.345
XW-2F 25 Sep 17:57:23 17:59:49 16° 67° (ENE) 18:02:15 145.980 - 146.000
XW-2B 25 Sep 17:58:58 18:01:36 18° 67° (ENE) 18:04:14 145.730 - 145.750
ITUPSAT 1 25 Sep 18:11:37 18:15:16 22° 295° (WNW) 18:18:56 437.325
NUDT-PHONESAT 25 Sep 18:13:05 18:15:43 18° 68° (ENE) 18:18:22 437.300
XW-2C 25 Sep 18:19:32 18:22:56 31° 71° (ENE) 18:26:23 145.795 - 145.815
DOVE 4 25 Sep 18:19:43 18:24:05 64° 258° (WSW) 18:28:17 437.250
Tancredo 1 25 Sep 18:29:13 18:30:21 12° 131° (SE) 18:31:27 437.200
LilacSat-2 25 Sep 18:34:07 18:37:52 50° 74° (ENE) 18:41:38 437.200
AO-7 25 Sep 18:36:25 18:38:10 11° 274° (W) 18:39:56 .
KAITUO 1B 25 Sep 18:44:02 18:47:39 44° 73° (ENE) 18:51:18 145.475/437.950
BEESAT 25 Sep 18:49:36 18:50:01 10° 302° (WNW) 18:50:27 436.000
BEESAT 3 25 Sep 18:59:44 19:01:49 14° 109° (ESE) 19:03:55 437.485
CUBEBUG 2 25 Sep 19:01:31 19:03:07 12° 61° (ENE) 19:04:43 437.445
KKS-1 25 Sep 19:01:49 19:06:15 70° 286° (WNW) 19:10:40 437.445
SEEDS 25 Sep 19:11:25 19:14:04 16° 65° (ENE) 19:16:43 437.485
XW-2D 25 Sep 19:19:21 19:23:02 44° 261° (W) 19:26:45 145.860 - 145.880
STARS 25 Sep 19:19:45 19:24:10 75° 103° (ESE) 19:28:35 437.465
HO-68 25 Sep 19:24:35 19:31:30 56° 68° (ENE) 19:38:29 435.675
CUTE-I 25 Sep 19:26:38 19:31:51 60° 259° (WSW) 19:37:07 437.470
XW-2A 25 Sep 19:26:51 19:28:23 13° 66° (ENE) 19:29:57 145.665 - 145.685
AAUSAT CUBESAT 2 25 Sep 19:28:53 19:30:03 11° 63° (ENE) 19:31:13 437.432
XW-2F 25 Sep 19:30:06 19:33:38 36° 263° (W) 19:37:12 145.980 - 146.000
XW-2B 25 Sep 19:32:03 19:35:31 32° 263° (W) 19:39:01 145.730 - 145.750
CUBESAT XI-V 25 Sep 19:32:06 19:34:25 14° 298° (WNW) 19:36:44 437.345
NO-84 25 Sep 19:40:56 19:43:46 31° 33° (NNE) 19:46:26 435.350 FM
CUTE 1.7 + AOD 2 25 Sep 19:42:03 19:46:14 56° 74° (ENE) 19:50:27 437.475
NUDT-PHONESAT 25 Sep 19:46:03 19:49:22 30° 263° (W) 19:52:43 437.300
ZACube-1 25 Sep 19:46:16 19:47:47 12° 61° (ENE) 19:49:20 437.345
ISS 25 Sep 19:53:12 19:55:08 15° 131° (SE) 19:57:04 437.550
XW-2C 25 Sep 19:54:29 19:57:10 18° 267° (W) 19:59:53 145.795 - 145.815
Tancredo 1 25 Sep 20:01:49 20:04:27 53° 327° (NNW) 20:07:06 437.200
LilacSat-2 25 Sep 20:11:06 20:12:25 11° 270° (W) 20:13:44 437.200
STRAND 1 25 Sep 20:16:57 20:21:11 25° 95° (E) 20:25:24 437.568
KAITUO 1B 25 Sep 20:20:16 20:21:51 12° 269° (W) 20:23:28 145.475/437.950
nSIGHT-1 25 Sep 20:26:58 20:29:55 35° 137° (SE) 20:32:55 .
CUBEBUG 2 25 Sep 20:34:50 20:39:04 69° 259° (W) 20:43:29 437.445
BEESAT 3 25 Sep 20:34:59 20:38:55 53° 306° (NW) 20:42:54 437.485
UWE-3 25 Sep 20:36:45 20:41:03 72° 76° (ENE) 20:45:30 435.000/436.395/437.385
AO-85 25 Sep 20:44:33 20:48:23 57° 119° (ESE) 20:52:14 145.980
SEEDS 25 Sep 20:45:19 20:49:23 44° 261° (W) 20:53:28 437.485
BEESAT 2 25 Sep 20:47:40 20:51:36 64° 120° (ESE) 20:55:38 435.950
XW-2A 25 Sep 20:57:35 21:00:45 36° 262° (W) 21:03:58 145.665 - 145.685
STARS 25 Sep 20:58:27 20:59:53 11° 299° (WNW) 21:01:18 437.465
AAUSAT CUBESAT 2 25 Sep 21:00:47 21:04:56 68° 259° (W) 21:09:05 437.432
Oscar 11 25 Sep 21:11:12 21:15:27 57° 74° (ENE) 21:19:45 .
HO-68 25 Sep 21:13:38 21:19:34 28° 266° (W) 21:25:32 435.675
FO-29 25 Sep 21:14:36 21:16:39 12° 90° (E) 21:18:46 435.910
AO-73 25 Sep 21:14:43 21:19:05 89° 76° (ENE) 21:23:34 145.935
NO-84 25 Sep 21:18:42 21:20:56 19° 232° (SW) 21:23:05 435.350 FM
ZACube-1 25 Sep 21:19:04 21:23:24 73° 259° (W) 21:27:52 437.345
CUTE 1.7 + AOD 2 25 Sep 21:20:32 21:22:24 13° 270° (W) 21:24:15 437.475
ISS 25 Sep 21:28:00 21:31:15 62° 327° (NNW) 21:34:31 437.550
Tancredo 1 25 Sep 21:38:00 21:39:22 13° 346° (NNW) 21:40:44 437.200
